Flag for Saint Lucia Weather past 2 weeks in Vieux Fort, Saint Lucia

Now
81 °F

Passing clouds.


Feels Like: 87 °F
Forecast: 81 / 87 °F
Wind: 16 mph from East

Location: Hewanorra International Airport

Current Time: Jul 25, 2014 at 3:02:02 AM

Latest Report: Jul 25, 2014 at 12:00 AM


Visibility: N/A

Pressure: 29.98 "Hg

Humidity: 89%

Dew point: 77 °F

Location of Vieux FortLocation

Historic Weather in Vieux Fort — Graph

°F

Vieux Fort temperature yesterday

Maximum temperature yesterday: 86 °F (at 11:00 AM)
Minimum temperature yesterday: 79 °F (at 12:00 AM)
Average temperature yesterday: 82 °F

Past Weeks' High & Low Weather Summary

 TemperatureHumidityPressure
High88 °F (Jul 12, 2:00 PM)94% (Jul 10, 10:00 PM)30.09 "Hg (Jul 10, 10:00 PM)
Low75 °F (Jul 10, 10:00 PM)62% (Jul 12, 10:00 AM)29.92 "Hg (Jul 24, 5:00 AM)
Average83 °F78%30.03 "Hg
* Reported Midnight between Jul 9 and Jul 10 — Midnight between Jul 24 and Jul 25, Vieux Fort, Weather by CustomWeather, © 2014

Note: Actual official high and low records may vary slightly from our data, if they occured in-between our weather recording intervals... More about our weather records

Advertising

Vieux Fort weather history for previous 24 hours

 ConditionsComfort  
Time TempWeatherWind HumidityBarometerVisibility
12:00 AM
Jul 25
81 °FPassing clouds.16 mph89%29.98 "HgN/A
11:00 PM
Jul 24
81 °FPassing clouds.12 mph89%30.01 "HgN/A
10:00 PM81 °FPartly cloudy.12 mph89%30.01 "HgN/A
9:00 PM81 °FPartly cloudy.15 mph89%30.01 "HgN/A
8:00 PM79 °FPartly cloudy.18 mph94%30.01 "HgN/A
7:00 PM81 °FPassing clouds.16 mph89%29.98 "HgN/A
6:00 PM84 °FPartly sunny.15 mph79%29.95 "HgN/A
5:00 PM84 °FPartly sunny.10 mph84%29.95 "HgN/A
4:00 PM84 °FScattered clouds.12 mph84%29.95 "HgN/A
3:00 PM86 °FScattered clouds.16 mph75%29.95 "HgN/A
2:00 PM86 °FPassing clouds.15 mph79%29.95 "HgN/A
1:00 PM86 °FPassing clouds.14 mph75%30.01 "HgN/A
12:00 PM86 °FScattered clouds.15 mph75%30.01 "HgN/A
11:00 AM86 °FPassing clouds.14 mph75%30.01 "HgN/A
10:00 AM84 °FPassing clouds.14 mph79%30.01 "HgN/A
9:00 AM84 °FPassing clouds.16 mph79%30.01 "HgN/A
8:00 AM82 °FScattered clouds.12 mph84%30.01 "HgN/A
7:00 AM81 °FScattered clouds.10 mph89%29.98 "HgN/A
6:00 AM81 °FBroken clouds.12 mph84%29.95 "HgN/A
5:00 AM81 °FPassing clouds.14 mph84%29.92 "HgN/A
4:00 AM81 °FPartly cloudy.15 mph89%29.95 "HgN/A
3:00 AM79 °FPassing clouds.15 mph94%29.95 "HgN/A
Weather by CustomWeather, © 2014

See weather overviewHow to use our weather pages